Location: *
(46.3500°N, 10.9000°E)
Time: 22:58:21
(UTC+00:00)

Explorer 7 - Pass Details

Date: 21 April 2021
Orbit: 484 x 677 km, 50.3° (Epoch: 13 May)

Event Time Altitude Azimuth Distance (km) Brightness Sun altitude
Rises 20:38:50 0° 267° (W) 2,670 10.9 -21.8°
Reaches altitude 10° 20:41:01 10° 272° (W) 1,811 10.0 -22.1°
Maximum altitude 20:45:04 54° 350° (N) 696 7.5 -22.5°
Enters shadow 20:47:09 28° 56° (NE) 1,118 8.3 -22.8°
Drops below altitude 10° 20:49:25 10° 69° (ENE) 1,935 - -23.0°
Sets 20:51:50 0° 74° (ENE) 2,873 - -23.3°
